CAPE
0 0 29 75 46 96 0 27 6 0 2 0 0 8 9 18 57 0 0 6 22 175 367 331 358 388 190 19 26 9 25 10 17 15 20 41 26 24 29 64 94 74 76 33 32 18 7 54 80
0 0 2 86 68 1 0 28 21 8 5 3 0 1 0 26 0 0 0 17 40 225 336 286 253 288 74 63 31 26 14 15 28 29 60 44 35 42 44 68 73 85 78 63 34 40 14 59 90
0 0 0 104 2 9 11 7 19 30 34 22 0 11 99 44 0 0 0 27 88 235 330 232 254 206 142 103 44 24 11 67 32 35 69 58 35 45 77 63 79 89 64 46 16 59 77 85 78
0 0 0 0 0 0 1 2 4 66 67 70 36 28 55 50 0 0 0 53 107 202 289 216 308 276 192 113 67 31 44 32 34 34 21 53 59 52 64 95 90 93 53 38 28 56 82 74 76
0 0 0 0 0 0 0 7 0 2 45 60 73 87 38 1 0 0 0 112 133 222 239 208 238 187 151 163 38 28 12 43 41 30 53 79 48 30 51 80 83 71 50 35 30 44 66 54 53
0 0 0 0 0 0 0 16 0 0 17 72 88 122 94 0 0 0 0 105 245 228 238 158 126 64 93 60 45 28 81 40 32 30 30 43 42 41 46 70 75 54 43 26 30 26 44 21 41
0 0 0 0 0 0 0 0 10 12 2 7 100 146 100 23 0 0 0 18 189 256 230 138 50 42 53 9 19 34 38 28 31 32 37 57 74 80 92 94 74 57 36 23 14 11 23 2 42
0 0 0 0 0 0 0 0 12 0 0 39 182 126 132 68 0 0 1 42 156 173 183 109 52 12 41 4 9 23 20 17 13 31 21 30 42 38 47 50 70 54 30 15 0 0 0 0 0
0 0 0 0 0 0 0 0 0 0 0 4 224 159 213 86 46 155 235 12 99 163 160 72 48 56 11 0 9 22 22 6 0 0 7 11 13 14 32 42 34 26 29 1 0 0 0 0 3
0 0 0 0 0 0 0 0 0 0 0 0 144 127 129 67 69 99 292 167 36 133 121 81 81 263 15 0 8 11 12 4 0 0 0 0 0 0 15 12 4 12 7 2 0 0 0 0 0
0 0 0 0 0 0 0 0 0 0 0 0 177 204 166 110 105 71 113 379 249 125 215 151 165 273 29 5 7 7 5 5 1 0 0 0 0 11 0 0 3 1 2 0 0 0 0 0 0
0 0 0 0 0 0 0 0 0 0 0 0 187 204 179 136 135 99 52 324 459 458 380 199 253 156 32 15 1 6 2 0 3 0 0 0 6 11 4 0 1 0 0 0 0 0 1 0 0
0 0 0 0 0 0 0 0 0 0 0 0 83 228 208 131 163 175 91 191 661 501 549 286 205 195 62 31 0 9 4 11 3 0 0 8 7 0 0 0 0 0 0 0 0 0 3 2 0
0 0 0 0 0 0 0 0 0 0 0 0 0 2 230 194 106 154 166 183 273 582 483 424 303 94 167 34 0 0 12 14 11 0 0 2 1 0 0 0 0 0 6 9 3 0 0 0 0
0 0 0 0 0 0 0 0 0 0 0 0 0 0 0 155 211 152 189 183 226 202 577 419 222 214 98 18 8 14 1 12 3 3 0 0 1 0 0 0 0 0 1 4 3 0 0 0 0
0 0 0 0 0 0 0 0 0 0 0 0 0 0 0 0 193 258 212 206 306 181 447 415 234 146 105 55 20 25 16 3 7 2 0 0 0 0 0 2 2 0 0 0 0 0 0 0 0
0 0 0 0 0 0 0 0 0 0 0 0 0 0 0 0 4 261 289 239 222 292 240 269 155 185 173 83 0 2 9 2 5 4 0 0 0 2 3 12 4 8 0 0 0 0 0 0 0
0 0 0 0 0 0 0 0 0 0 0 0 0 0 0 0 1 77 313 307 262 262 293 208 192 132 188 86 11 0 0 12 6 6 0 0 0 3 6 5 2 7 6 4 0 0 0 0 0
0 0 0 0 0 0 0 0 0 0 0 0 0 0 0 0 0 8 153 285 296 213 303 293 164 181 88 84 29 0 0 0 0 0 0 0 0 1 0 6 7 8 2 5 0 0 0 0 0
0 0 0 0 0 0 0 0 0 0 0 0 0 0 0 0 0 0 24 165 268 263 243 271 249 124 87 37 99 13 0 0 3 1 0 0 0 0 9 1 3 8 1 6 3 0 0 0 0
0 0 0 0 0 0 0 0 0 0 0 0 0 0 0 0 0 0 4 87 340 267 271 279 272 195 85 72 22 63 33 9 2 0 0 0 0 0 0 1 3 6 0 4 3 0 0 0 0
0 0 0 0 0 0 0 0 0 0 0 0 0 0 0 0 0 0 0 50 298 329 275 228 178 136 79 54 29 22 22 14 0 0 0 0 0 0 0 0 0 2 0 1 3 0 0 0 0
0 0 0 0 0 0 0 0 0 0 0 0 0 0 0 0 0 0 0 0 118 274 174 211 158 110 95 65 56 24 3 6 53 2 2 0 0 0 0 0 0 1 17 3 4 0 0 0 0
0 0 0 0 0 0 0 0 0 0 0 0 0 0 0 0 0 0 0 0 0 130 213 175 145 88 83 83 52 32 23 8 0 42 22 11 0 0 0 0 5 0 0 2 3 4 0 0 0
0 0 0 0 0 0 0 0 0 0 0 0 0 0 0 0 0 0 0 0 0 0 58 163 146 94 79 47 42 54 30 3 1 2 2 37 2 0 0 0 4 2 0 0 3 4 6 0 0
0 0 0 0 0 0 0 0 0 0 0 0 0 0 0 0 0 0 0 0 0 0 0 52 163 133 83 69 72 61 70 54 52 35 49 12 15 13 0 0 0 0 0 0 2 2 4 4 0
0 0 0 0 0 0 0 0 0 0 0 0 0 0 0 0 0 0 0 0 0 0 0 0 22 159 114 80 90 70 78 58 45 32 36 23 17 28 0 0 0 0 6 12 10 2 1 3 5
0 0 0 0 0 0 0 0 0 0 0 0 0 0 0 0 0 0 0 0 0 0 0 0 0 294 239 198 116 50 98 82 54 57 33 31 47 72 50 2 2 12 18 11 5 0 0 4 2
0 0 0 0 0 0 0 0 0 0 0 0 0 0 0 0 0 0 0 0 0 0 0 5 64 244 317 248 191 137 146 75 99 67 72 47 77 40 94 6 36 92 56 68 51 20 3 0 0
0 0 0 0 0 0 0 0 0 0 0 0 0 0 0 0 0 0 0 0 0 0 3 44 95 158 80 175 282 282 249 177 120 114 77 86 105 89 24 122 65 118 228 130 141 49 49 3 0
CIN
-0 -0 -73 -71 -36 -17 -0 -59 -29 -1 -12 -0 -0 -9 -110 -102 -74 -0 -0 -319 -352 -83 -5 -4 -4 -8 -37 -37 -206 -0 -1 -0 -0 -0 -0 -0 -0 -0 -1 -2 -105 -0 -0 -0 -0 -0 -0 -0 -0
-0 -0 -8 -54 -30 -5 -0 -29 -2 -9 -38 -13 -0 -5 -0 -91 -0 -0 -0 -310 -325 -54 -20 -6 -22 -27 -117 -129 -238 -0 -0 -0 -1 -2 -2 -2 -0 -0 -3 -1 -1 -0 -0 -0 -0 -0 -0 -0 -0
-0 -0 -0 -9 -3 -20 -55 -12 -20 -13 -9 -17 -2 -30 -49 -96 -0 -0 -0 -329 -231 -43 -18 -25 -19 -38 -45 -69 -180 -139 -0 -220 -1 -1 -1 -6 -2 -3 -2 -1 -0 -0 -0 -0 -0 -0 -0 -0 -0
-0 -0 -0 -0 -1 -0 -36 -3 -1 -3 -23 -49 -40 -91 -96 -76 -0 -0 -0 -249 -208 -58 -20 -26 -6 -9 -33 -54 -112 -289 -236 -0 -0 -0 -0 -1 -0 -2 -1 -0 -2 -0 -0 -0 -0 -0 -0 -0 -0
-0 -0 -0 -0 -0 -0 -0 -6 -0 -5 -10 -29 -37 -50 -52 -14 -0 -0 -0 -179 -174 -50 -28 -24 -8 -14 -37 -21 -152 -115 -0 -1 -0 -0 -1 -0 -0 -0 -0 -0 -0 -0 -0 -0 -2 -1 -0 -1 -1
-0 -0 -0 -0 -0 -0 -0 -3 -0 -0 -0 -22 -27 -17 -27 -0 -0 -0 -0 -168 -87 -70 -32 -34 -53 -103 -58 -80 -128 -1 -97 -3 -0 -0 -0 -0 -0 -0 -0 -0 -0 -0 -0 -2 -6 -5 -1 -10 -9
-0 -0 -0 -0 -0 -0 -0 -0 -15 -4 -3 -24 -27 -25 -39 -24 -0 -0 -0 -258 -92 -40 -33 -49 -92 -149 -107 -188 -169 -27 -9 -2 -1 -1 -0 -1 -0 -0 -0 -0 -0 -0 -2 -4 -16 -17 -7 -2 -16
-0 -0 -0 -0 -0 -0 -0 -0 -4 -0 -0 -50 -27 -11 -16 -23 -0 -0 -11 -219 -129 -73 -55 -53 -112 -172 -142 -203 -8 -12 -15 -13 -8 -9 -19 -5 -7 -10 -6 -2 -1 -0 -3 -11 -0 -0 -0 -0 -1
-0 -0 -0 -0 -0 -0 -0 -0 -0 -0 -0 -12 -45 -41 -39 -51 -104 -142 -124 -121 -124 -73 -56 -79 -98 -44 -145 -0 -7 -7 -12 -13 -0 -0 -12 -12 -13 -9 -3 -2 -5 -2 -4 -0 -0 -0 -0 -0 -20
-0 -0 -0 -0 -0 -0 -0 -0 -0 -0 -0 -0 -44 -64 -89 -53 -228 -176 -97 -104 -143 -72 -68 -79 -74 -26 -77 -0 -5 -8 -8 -19 -0 -0 -0 -0 -0 -0 -4 -5 -9 -7 -3 -0 -0 -0 -0 -0 -0
-0 -0 -0 -0 -0 -0 -0 -0 -0 -0 -0 -0 -52 -43 -69 -80 -209 -203 -142 -52 -62 -69 -37 -51 -30 -10 -45 -58 -6 -6 -9 -0 -0 -0 -0 -0 -0 -4 -0 -0 -4 -0 -1 -0 -0 -0 -0 -0 -0
-0 -0 -0 -0 -0 -0 -0 -0 -0 -0 -0 -0 -32 -36 -57 -51 -83 -203 -202 -91 -53 -29 -23 -24 -5 -13 -54 -43 -1 -1 -0 -0 -0 -0 -0 -0 -15 -6 -5 -0 -0 -0 -0 -0 -0 -0 -1 -0 -0
-0 -0 -0 -0 -0 -0 -0 -0 -0 -0 -0 -0 -9 -30 -49 -60 -120 -132 -154 -109 -27 -50 -6 -28 -14 -21 -54 -33 -0 -0 -2 -36 -0 -0 -0 -24 -15 -0 -0 -0 -0 -0 -0 -0 -0 -0 -0 -0 -0
-0 -0 -0 -0 -0 -0 -0 -0 -0 -0 -0 -0 -0 -1 -20 -38 -69 -107 -83 -112 -78 -24 -28 -0 -5 -56 -27 -53 -0 -0 -11 -28 -0 -0 -0 -7 -15 -0 -0 -0 -0 -0 -21 -10 -3 -0 -0 -0 -0
-0 -0 -0 -0 -0 -0 -0 -0 -0 -0 -0 -0 -0 -0 -0 -25 -26 -69 -89 -98 -95 -85 -7 -22 -21 -20 -64 -148 -135 -152 -1 -19 -0 -5 -0 -0 -2 -0 -0 -0 -0 -0 -0 -0 -0 -0 -0 -0 -0
-0 -0 -0 -0 -0 -0 -0 -0 -0 -0 -0 -0 -0 -0 -0 -0 -36 -35 -48 -61 -84 -97 -24 -19 -22 -17 -57 -94 -137 -127 -46 -18 -6 -0 -0 -0 -0 -0 -1 -2 -15 -0 -0 -0 -0 -0 -0 -0 -0
-0 -0 -0 -0 -0 -0 -0 -0 -0 -0 -0 -0 -0 -0 -0 -0 -4 -26 -30 -41 -77 -81 -85 -34 -49 -23 -22 -54 -0 -7 -13 -11 -5 -0 -0 -0 -0 -3 -11 -8 -0 -5 -0 -0 -0 -0 -0 -0 -0
-0 -0 -0 -0 -0 -0 -0 -0 -0 -0 -0 -0 -0 -0 -0 -0 -3 -40 -35 -52 -51 -88 -67 -50 -24 -18 -4 -36 -53 -0 -0 -3 -2 -0 -0 -0 -0 -1 -2 -4 -0 -0 -0 -0 -0 -0 -0 -0 -0
-0 -0 -0 -0 -0 -0 -0 -0 -0 -0 -0 -0 -0 -0 -0 -0 -0 -60 -49 -60 -65 -56 -92 -57 -57 -43 -48 -42 -84 -0 -0 -0 -0 -0 -0 -0 -0 -1 -0 -0 -0 -0 -0 -0 -0 -0 -0 -0 -0
-0 -0 -0 -0 -0 -0 -0 -0 -0 -0 -0 -0 -0 -0 -0 -0 -0 -0 -62 -57 -59 -72 -117 -93 -51 -54 -56 -21 -31 -57 -0 -0 -15 -3 -0 -0 -0 -0 -5 -0 -0 -0 -0 -0 -0 -0 -0 -0 -0
-0 -0 -0 -0 -0 -0 -0 -0 -0 -0 -0 -0 -0 -0 -0 -0 -0 -0 -64 -59 -60 -55 -65 -85 -100 -76 -56 -29 -18 -42 -56 -0 -0 -0 -0 -0 -0 -0 -0 -15 -11 -0 -0 -0 -0 -0 -0 -0 -0
-0 -0 -0 -0 -0 -0 -0 -0 -0 -0 -0 -0 -0 -0 -0 -0 -0 -0 -0 -41 -34 -41 -63 -66 -82 -67 -42 -74 -21 -13 -13 -24 -0 -0 -0 -0 -0 -0 -0 -0 -3 -2 -0 -0 -0 -0 -0 -0 -0
-0 -0 -0 -0 -0 -0 -0 -0 -0 -0 -0 -0 -0 -0 -0 -0 -0 -0 -0 -0 -52 -27 -52 -40 -62 -81 -73 -34 -23 -13 -3 -32 -10 -3 -0 -0 -0 -0 -0 -0 -0 -5 -59 -0 -0 -0 -0 -0 -0
-0 -0 -0 -0 -0 -0 -0 -0 -0 -0 -0 -0 -0 -0 -0 -0 -0 -0 -0 -0 -0 -49 -53 -46 -40 -53 -66 -60 -46 -13 -3 -3 -0 -16 -65 -68 -0 -0 -0 -0 -1 -0 -0 -0 -0 -0 -0 -0 -0
-0 -0 -0 -0 -0 -0 -0 -0 -0 -0 -0 -0 -0 -0 -0 -0 -0 -0 -0 -0 -0 -0 -56 -57 -56 -39 -59 -62 -53 -45 -8 -7 -11 -23 -68 -16 -0 -0 -0 -0 -2 -1 -0 -0 -0 -0 -0 -0 -0
-0 -0 -0 -0 -0 -0 -0 -0 -0 -0 -0 -0 -0 -0 -0 -0 -0 -0 -0 -0 -0 -0 -0 -14 -43 -41 -30 -43 -51 -54 -44 -36 -20 -25 -36 -51 -47 -66 -0 -0 -0 -0 -0 -0 -0 -0 -0 -0 -0
-0 -0 -0 -0 -0 -0 -0 -0 -0 -0 -0 -0 -0 -0 -0 -0 -0 -0 -0 -0 -0 -0 -0 -0 -31 -31 -79 -73 -63 -70 -41 -34 -27 -6 -17 -44 -10 -37 -0 -0 -0 -0 -62 -100 -91 -0 -0 -0 -0
-0 -0 -0 -0 -0 -0 -0 -0 -0 -0 -0 -0 -0 -0 -0 -0 -0 -0 -0 -0 -0 -0 -0 -0 -0 -14 -54 -74 -68 -70 -54 -50 -18 -47 -23 -16 -25 -15 -4 -27 -2 -1 -11 -30 -45 -0 -0 -0 -0
-0 -0 -0 -0 -0 -0 -0 -0 -0 -0 -0 -0 -0 -0 -0 -0 -0 -0 -0 -0 -0 -0 -0 -78 -69 -24 -22 -44 -49 -21 -13 -44 -19 -8 -23 -15 -1 -5 -0 -10 -10 -2 -10 -2 -1 -8 -15 -0 -0
-0 -0 -0 -0 -0 -0 -0 -0 -0 -0 -0 -0 -0 -0 -0 -0 -0 -0 -0 -0 -0 -0 -0 -20 -64 -29 -22 -32 -5 -5 -1 -1 -0 -2 -1 -12 -16 -0 -9 -0 -10 -16 -0 -1 -0 -0 -0 -0 -0
Wind_Speed
nan nan nan nan nan nan nan nan nan nan nan nan nan nan nan nan nan nan nan nan nan 12 10 11 14 18 19 nan nan nan nan nan nan nan nan nan nan nan nan nan nan nan nan nan nan nan nan nan nan
nan nan nan nan nan nan nan nan nan nan nan nan nan nan nan nan nan nan nan nan nan 11 10 8 14 19 nan nan nan nan nan nan nan nan nan nan nan nan nan nan nan nan nan nan nan nan nan nan nan
nan nan nan 20 nan nan nan nan nan nan nan nan nan nan nan nan nan nan nan nan nan 14 12 10 11 18 18 17 nan nan nan nan nan nan nan nan nan nan nan nan nan nan nan nan nan nan nan nan nan
nan nan nan nan nan nan nan nan nan nan nan nan nan nan nan nan nan nan nan nan 23 15 16 14 14 18 17 17 nan nan nan nan nan nan nan nan nan nan nan nan nan nan nan nan nan nan nan nan nan
nan nan nan nan nan nan nan nan nan nan nan nan nan nan nan nan nan nan nan 23 22 20 20 18 19 18 19 18 nan nan nan nan nan nan nan nan nan nan nan nan nan nan nan nan nan nan nan nan nan
nan nan nan nan nan nan nan nan nan nan nan nan nan 28 nan nan nan nan nan 24 24 23 23 21 20 nan nan nan nan nan nan nan nan nan nan nan nan nan nan nan nan nan nan nan nan nan nan nan nan
nan nan nan nan nan nan nan nan nan nan nan nan 29 35 25 nan nan nan nan nan 28 24 23 23 nan nan nan nan nan nan nan nan nan nan nan nan nan nan nan nan nan nan nan nan nan nan nan nan nan
nan nan nan nan nan nan nan nan nan nan nan nan 33 25 22 nan nan nan nan nan 33 26 25 24 nan nan nan nan nan nan nan nan nan nan nan nan nan nan nan nan nan nan nan nan nan nan nan nan nan
nan nan nan nan nan nan nan nan nan nan nan nan 38 30 25 nan nan 35 33 nan nan 31 24 nan nan nan nan nan nan nan nan nan nan nan nan nan nan nan nan nan nan nan nan nan nan nan nan nan nan
nan nan nan nan nan nan nan nan nan nan nan nan 38 35 30 nan nan nan 30 28 nan 33 28 nan nan 22 nan nan nan nan nan nan nan nan nan nan nan nan nan nan nan nan nan nan nan nan nan nan nan
nan nan nan nan nan nan nan nan nan nan nan nan 27 32 32 33 36 nan 25 25 29 32 32 28 25 25 nan nan nan nan nan nan nan nan nan nan nan nan nan nan nan nan nan nan nan nan nan nan nan
nan nan nan nan nan nan nan nan nan nan nan nan 36 29 30 34 30 nan nan 24 26 31 33 31 28 29 nan nan nan nan nan nan nan nan nan nan nan nan nan nan nan nan nan nan nan nan nan nan nan
nan nan nan nan nan nan nan nan nan nan nan nan nan 32 23 28 33 29 nan 27 29 29 32 32 32 32 nan nan nan nan nan nan nan nan nan nan nan nan nan nan nan nan nan nan nan nan nan nan nan
nan nan nan nan nan nan nan nan nan nan nan nan nan nan 27 26 26 33 30 27 29 30 29 31 31 nan 33 nan nan nan nan nan nan nan nan nan nan nan nan nan nan nan nan nan nan nan nan nan nan
nan nan nan nan nan nan nan nan nan nan nan nan nan nan nan 27 31 26 32 32 29 30 30 30 32 35 nan nan nan nan nan nan nan nan nan nan nan nan nan nan nan nan nan nan nan nan nan nan nan
nan nan nan nan nan nan nan nan nan nan nan nan nan nan nan nan 29 28 30 35 31 32 28 30 34 32 37 nan nan nan nan nan nan nan nan nan nan nan nan nan nan nan nan nan nan nan nan nan nan
nan nan nan nan nan nan nan nan nan nan nan nan nan nan nan nan nan 32 31 32 36 33 34 32 36 38 36 nan nan nan nan nan nan nan nan nan nan nan nan nan nan nan nan nan nan nan nan nan nan
nan nan nan nan nan nan nan nan nan nan nan nan nan nan nan nan nan nan 32 32 35 36 36 38 40 39 39 nan nan nan nan nan nan nan nan nan nan nan nan nan nan nan nan nan nan nan nan nan nan
nan nan nan nan nan nan nan nan nan nan nan nan nan nan nan nan nan nan 35 34 36 36 39 39 41 37 nan nan nan nan nan nan nan nan nan nan nan nan nan nan nan nan nan nan nan nan nan nan nan
nan nan nan nan nan nan nan nan nan nan nan nan nan nan nan nan nan nan nan 40 40 38 32 38 39 38 nan nan nan nan nan nan nan nan nan nan nan nan nan nan nan nan nan nan nan nan nan nan nan
nan nan nan nan nan nan nan nan nan nan nan nan nan nan nan nan nan nan nan nan 40 42 36 34 36 38 nan nan nan nan nan nan nan nan nan nan nan nan nan nan nan nan nan nan nan nan nan nan nan
nan nan nan nan nan nan nan nan nan nan nan nan nan nan nan nan nan nan nan nan 41 39 41 36 37 36 nan nan nan nan nan nan nan nan nan nan nan nan nan nan nan nan nan nan nan nan nan nan nan
nan nan nan nan nan nan nan nan nan nan nan nan nan nan nan nan nan nan nan nan 42 40 41 43 40 38 nan nan nan nan nan nan nan nan nan nan nan nan nan nan nan nan nan nan nan nan nan nan nan
nan nan nan nan nan nan nan nan nan nan nan nan nan nan nan nan nan nan nan nan nan 45 43 44 49 nan nan nan nan nan nan nan nan nan nan nan nan nan nan nan nan nan nan nan nan nan nan nan nan
nan nan nan nan nan nan nan nan nan nan nan nan nan nan nan nan nan nan nan nan nan nan nan 42 45 nan nan nan nan nan nan nan nan nan nan nan nan nan nan nan nan nan nan nan nan nan nan nan nan
nan nan nan nan nan nan nan nan nan nan nan nan nan nan nan nan nan nan nan nan nan nan nan nan 42 48 nan nan nan nan nan nan nan nan nan nan nan nan nan nan nan nan nan nan nan nan nan nan nan
nan nan nan nan nan nan nan nan nan nan nan nan nan nan nan nan nan nan nan nan nan nan nan nan nan 40 48 nan nan nan nan nan nan nan nan nan nan nan nan nan nan nan nan nan nan nan nan nan nan
nan nan nan nan nan nan nan nan nan nan nan nan nan nan nan nan nan nan nan nan nan nan nan nan nan 39 40 44 46 nan nan nan nan nan nan nan nan nan nan nan nan nan nan nan nan nan nan nan nan
nan nan nan nan nan nan nan nan nan nan nan nan nan nan nan nan nan nan nan nan nan nan nan nan nan 52 48 47 46 48 46 nan nan nan nan nan nan nan nan nan nan nan nan nan nan nan nan nan nan
nan nan nan nan nan nan nan nan nan nan nan nan nan nan nan nan nan nan nan nan nan nan nan nan nan 61 nan 55 52 45 48 45 42 38 nan nan 35 nan nan 41 nan 30 31 34 35 nan nan nan nan
Wind_Direction
nan nan nan nan nan nan nan nan nan nan nan nan nan nan nan nan nan nan nan nan nan 277 264 254 248 245 247 nan nan nan nan nan nan nan nan nan nan nan nan nan nan nan nan nan nan nan nan nan nan
nan nan nan nan nan nan nan nan nan nan nan nan nan nan nan nan nan nan nan nan nan 268 272 245 253 251 nan nan nan nan nan nan nan nan nan nan nan nan nan nan nan nan nan nan nan nan nan nan nan
nan nan nan 257 nan nan nan nan nan nan nan nan nan nan nan nan nan nan nan nan nan 257 261 253 258 259 251 244 nan nan nan nan nan nan nan nan nan nan nan nan nan nan nan nan nan nan nan nan nan
nan nan nan nan nan nan nan nan nan nan nan nan nan nan nan nan nan nan nan nan 250 259 253 265 264 268 258 243 nan nan nan nan nan nan nan nan nan nan nan nan nan nan nan nan nan nan nan nan nan
nan nan nan nan nan nan nan nan nan nan nan nan nan nan nan nan nan nan nan 244 249 248 255 254 268 268 260 244 nan nan nan nan nan nan nan nan nan nan nan nan nan nan nan nan nan nan nan nan nan
nan nan nan nan nan nan nan nan nan nan nan nan nan 236 nan nan nan nan nan 239 234 249 259 256 258 nan nan nan nan nan nan nan nan nan nan nan nan nan nan nan nan nan nan nan nan nan nan nan nan
nan nan nan nan nan nan nan nan nan nan nan nan 233 226 232 nan nan nan nan nan 239 241 250 258 nan nan nan nan nan nan nan nan nan nan nan nan nan nan nan nan nan nan nan nan nan nan nan nan nan
nan nan nan nan nan nan nan nan nan nan nan nan 236 237 236 nan nan nan nan nan 239 236 241 251 nan nan nan nan nan nan nan nan nan nan nan nan nan nan nan nan nan nan nan nan nan nan nan nan nan
nan nan nan nan nan nan nan nan nan nan nan nan 229 239 236 nan nan 235 234 nan nan 231 234 nan nan nan nan nan nan nan nan nan nan nan nan nan nan nan nan nan nan nan nan nan nan nan nan nan nan
nan nan nan nan nan nan nan nan nan nan nan nan 229 221 247 nan nan nan 239 237 nan 233 231 nan nan 244 nan nan nan nan nan nan nan nan nan nan nan nan nan nan nan nan nan nan nan nan nan nan nan
nan nan nan nan nan nan nan nan nan nan nan nan 246 247 248 247 250 nan 242 250 238 238 231 232 237 243 nan nan nan nan nan nan nan nan nan nan nan nan nan nan nan nan nan nan nan nan nan nan nan
nan nan nan nan nan nan nan nan nan nan nan nan 251 260 243 242 250 nan nan 255 252 244 242 239 239 241 nan nan nan nan nan nan nan nan nan nan nan nan nan nan nan nan nan nan nan nan nan nan nan
nan nan nan nan nan nan nan nan nan nan nan nan nan 255 259 247 239 249 nan 238 249 257 250 247 244 246 nan nan nan nan nan nan nan nan nan nan nan nan nan nan nan nan nan nan nan nan nan nan nan
nan nan nan nan nan nan nan nan nan nan nan nan nan nan 241 249 249 240 242 239 243 248 255 258 253 nan 249 nan nan nan nan nan nan nan nan nan nan nan nan nan nan nan nan nan nan nan nan nan nan
nan nan nan nan nan nan nan nan nan nan nan nan nan nan nan 247 250 250 243 239 247 243 239 260 252 249 nan nan nan nan nan nan nan nan nan nan nan nan nan nan nan nan nan nan nan nan nan nan nan
nan nan nan nan nan nan nan nan nan nan nan nan nan nan nan nan 256 256 249 240 245 247 243 244 253 256 256 nan nan nan nan nan nan nan nan nan nan nan nan nan nan nan nan nan nan nan nan nan nan
nan nan nan nan nan nan nan nan nan nan nan nan nan nan nan nan nan 249 255 249 242 246 251 247 247 245 250 nan nan nan nan nan nan nan nan nan nan nan nan nan nan nan nan nan nan nan nan nan nan
nan nan nan nan nan nan nan nan nan nan nan nan nan nan nan nan nan nan 256 256 252 246 247 253 248 249 249 nan nan nan nan nan nan nan nan nan nan nan nan nan nan nan nan nan nan nan nan nan nan
nan nan nan nan nan nan nan nan nan nan nan nan nan nan nan nan nan nan 252 257 258 254 250 252 256 258 nan nan nan nan nan nan nan nan nan nan nan nan nan nan nan nan nan nan nan nan nan nan nan
nan nan nan nan nan nan nan nan nan nan nan nan nan nan nan nan nan nan nan 249 256 259 264 258 254 257 nan nan nan nan nan nan nan nan nan nan nan nan nan nan nan nan nan nan nan nan nan nan nan
nan nan nan nan nan nan nan nan nan nan nan nan nan nan nan nan nan nan nan nan 250 254 257 262 261 256 nan nan nan nan nan nan nan nan nan nan nan nan nan nan nan nan nan nan nan nan nan nan nan
nan nan nan nan nan nan nan nan nan nan nan nan nan nan nan nan nan nan nan nan 238 245 253 255 255 258 nan nan nan nan nan nan nan nan nan nan nan nan nan nan nan nan nan nan nan nan nan nan nan
nan nan nan nan nan nan nan nan nan nan nan nan nan nan nan nan nan nan nan nan 245 238 242 248 251 250 nan nan nan nan nan nan nan nan nan nan nan nan nan nan nan nan nan nan nan nan nan nan nan
nan nan nan nan nan nan nan nan nan nan nan nan nan nan nan nan nan nan nan nan nan 236 240 243 252 nan nan nan nan nan nan nan nan nan nan nan nan nan nan nan nan nan nan nan nan nan nan nan nan
nan nan nan nan nan nan nan nan nan nan nan nan nan nan nan nan nan nan nan nan nan nan nan 248 255 nan nan nan nan nan nan nan nan nan nan nan nan nan nan nan nan nan nan nan nan nan nan nan nan
nan nan nan nan nan nan nan nan nan nan nan nan nan nan nan nan nan nan nan nan nan nan nan nan 249 256 nan nan nan nan nan nan nan nan nan nan nan nan nan nan nan nan nan nan nan nan nan nan nan
nan nan nan nan nan nan nan nan nan nan nan nan nan nan nan nan nan nan nan nan nan nan nan nan nan 250 260 nan nan nan nan nan nan nan nan nan nan nan nan nan nan nan nan nan nan nan nan nan nan
nan nan nan nan nan nan nan nan nan nan nan nan nan nan nan nan nan nan nan nan nan nan nan nan nan 246 255 261 259 nan nan nan nan nan nan nan nan nan nan nan nan nan nan nan nan nan nan nan nan
nan nan nan nan nan nan nan nan nan nan nan nan nan nan nan nan nan nan nan nan nan nan nan nan nan 235 238 247 250 250 254 nan nan nan nan nan nan nan nan nan nan nan nan nan nan nan nan nan nan
nan nan nan nan nan nan nan nan nan nan nan nan nan nan nan nan nan nan nan nan nan nan nan nan nan 230 nan 231 239 246 249 252 254 264 nan nan 255 nan nan 286 nan 294 297 292 295 nan nan nan nan